Elizabeth City, NC

3:22 AM EDT on April 24, 2018 (GMT -0400)
Elizabeth City Cgas-Regional

Weather History for KECG - October, 2013

Change the Weather History Date:

Monday, October 14, 2013

  Actual Average Record
Temperature  
Mean Temperature 68 °F 63 °F  
Max Temperature 72 °F 73 °F 86 °F (1975)
Min Temperature 64 °F 53 °F 35 °F (1988)
Degree Days  
Heating Degree Days 0 4  
Month to date heating degree days 1 37  
Since 1 July heating degree days 16 49  
Cooling Degree Days 3 2  
Month to date cooling degree days 77 39  
Year to date cooling degree days 1648 1561  
Growing Degree Days 18 (Base 50)    
Moisture  
Dew Point 63 °F    
Average Humidity 83    
Maximum Humidity 93    
Minimum Humidity 73    
Precipitation  
Precipitation T in 0.10 in 2.80 in (1942)
Month to date precipitation 5.48 1.48  
Year to date precipitation 36.35 39.37  
Snow  
Snow 0.00 in - 0.00 in (2002)
Month to date snowfall 0.0  
Since 1 July snowfall 0.0  
Snow Depth 0.00 in    
Sea Level Pressure  
Sea Level Pressure 30.16 in    
Wind  
Wind Speed 17 mph (NNE)    
Max Wind Speed 25 mph    
Max Gust Speed 33 mph    
Visibility 9 miles    
Events      
T = Trace of Precipitation, MM = Missing Value Source: NWS Daily Summary

Daily Weather History Graph

Daily Weather History Graph

Search for Another Location

Airport or City:

Astronomy

Oct. 14, 2013 Rise Set
Actual Time 7:11 AM EDT 6:29 PM EDT
Civil Twilight 6:45 AM EDT 6:55 PM EDT
Nautical Twilight 6:15 AM EDT 7:25 PM EDT
Astronomical Twilight 5:45 AM EDT 7:55 PM EDT
Moon 3:51 PM EDT (10/14) 2:32 AM EDT (10/14)
Length of Visible Light 12h 10m
Length of Day
11h 18m
Waxing Gibbous, 79% of the Moon is Illuminated
Oct 14
Waxing Gibbous
Oct 18
Full
Oct 26
Last Quarter
Nov 3
New
Nov 10
First Quarter

Hourly Weather History & Observations

Time (EDT) Temp. Dew Point Humidity Pressure Visibility Wind Dir Wind Speed Gust Speed Precip Events Conditions
12:31 AM 68.0 °F 66.2 °F 94% 30.16 in 8.0 mi NE 15.0 mph - 0.00 in   Overcast
12:40 AM 68.0 °F 66.2 °F 94% 30.15 in 9.0 mi NE 13.8 mph - 0.00 in   Overcast
12:54 AM 68.0 °F 66.0 °F 93% 30.15 in 9.0 mi NE 13.8 mph - 0.00 in   Overcast
1:08 AM 68.0 °F 64.4 °F 88% 30.15 in 9.0 mi NNE 12.7 mph - N/A   Overcast
1:36 AM 68.0 °F 64.4 °F 88% 30.15 in 9.0 mi NNE 13.8 mph - N/A   Overcast
1:54 AM 68.0 °F 64.9 °F 90% 30.16 in 9.0 mi NNE 15.0 mph - N/A   Overcast
2:37 AM 68.0 °F 64.4 °F 88% 30.15 in 9.0 mi NNE 13.8 mph - N/A   Overcast
2:54 AM 68.0 °F 64.9 °F 90% 30.15 in 9.0 mi NNE 15.0 mph - N/A   Overcast
3:54 AM 69.1 °F 64.9 °F 87% 30.14 in 9.0 mi NNE 13.8 mph - N/A   Overcast
4:47 AM 69.8 °F 64.4 °F 83% 30.15 in 9.0 mi NNE 17.3 mph - N/A   Overcast
4:54 AM 68.0 °F 64.0 °F 87% 30.16 in 9.0 mi NNE 15.0 mph - N/A   Overcast
5:16 AM 68.0 °F 64.4 °F 88% 30.16 in 8.0 mi NNE 17.3 mph 24.2 mph N/A   Overcast
5:54 AM 68.0 °F 64.0 °F 87% 30.17 in 8.0 mi NNE 13.8 mph - N/A   Overcast
6:26 AM 66.2 °F 64.4 °F 94% 30.17 in 7.0 mi NNE 17.3 mph - N/A   Overcast
6:34 AM 66.2 °F 64.4 °F 94% 30.17 in 8.0 mi NNE 15.0 mph - N/A   Overcast
6:54 AM 66.9 °F 64.0 °F 90% 30.18 in 8.0 mi NNE 11.5 mph - N/A   Overcast
7:54 AM 66.9 °F 64.0 °F 90% 30.19 in 7.0 mi NNE 13.8 mph - 0.00 in   Overcast
8:54 AM 68.0 °F 63.0 °F 84% 30.19 in 8.0 mi NNE 20.7 mph 26.5 mph N/A   Overcast
9:54 AM 69.1 °F 63.0 °F 81% 30.19 in 9.0 mi NNE 18.4 mph 24.2 mph N/A   Overcast
10:54 AM 69.1 °F 62.1 °F 78% 30.20 in 9.0 mi NNE 17.3 mph 26.5 mph N/A   Overcast
11:54 AM 70.0 °F 62.1 °F 76% 30.19 in 10.0 mi NNE 25.3 mph 33.4 mph N/A   Overcast
12:54 PM 70.0 °F 62.1 °F 76% 30.18 in 10.0 mi NNE 21.9 mph 28.8 mph N/A   Overcast
1:06 PM 69.8 °F 62.6 °F 78% 30.17 in 10.0 mi NNE 19.6 mph - N/A   Overcast
1:13 PM 71.6 °F 62.6 °F 73% 30.17 in 10.0 mi NNE 23.0 mph 28.8 mph N/A   Overcast
1:54 PM 71.1 °F 62.1 °F 73% 30.16 in 10.0 mi NNE 17.3 mph 31.1 mph N/A   Overcast
2:54 PM 69.1 °F 61.0 °F 75% 30.15 in 10.0 mi NNE 23.0 mph 28.8 mph N/A   Overcast
3:54 PM 68.0 °F 61.0 °F 78% 30.15 in 10.0 mi NNE 20.7 mph 25.3 mph N/A   Overcast
4:36 PM 69.8 °F 60.8 °F 73% 30.15 in 10.0 mi NNE 16.1 mph 28.8 mph N/A   Overcast
4:54 PM 68.0 °F 61.0 °F 78% 30.15 in 10.0 mi NNE 19.6 mph 28.8 mph N/A   Overcast
5:54 PM 66.9 °F 61.0 °F 81% 30.16 in 10.0 mi NNE 17.3 mph - N/A   Overcast
6:54 PM 66.0 °F 61.0 °F 84% 30.17 in 10.0 mi NNE 16.1 mph - N/A   Overcast
7:54 PM 66.0 °F 61.0 °F 84% 30.17 in 10.0 mi NNE 15.0 mph 20.7 mph N/A   Overcast
8:54 PM 64.9 °F 60.1 °F 84% 30.17 in 10.0 mi North 12.7 mph - N/A   Overcast
9:54 PM 64.9 °F 60.1 °F 84% 30.17 in 10.0 mi NNE 11.5 mph - N/A   Overcast
10:03 PM 64.4 °F 60.8 °F 88% 30.17 in 10.0 mi NNE 15.0 mph 20.7 mph N/A   Overcast
10:54 PM 64.9 °F 60.1 °F 84% 30.17 in 10.0 mi NNE 15.0 mph - N/A   Overcast
11:54 PM 64.9 °F 60.1 °F 84% 30.16 in 10.0 mi NNE 16.1 mph - N/A   Overcast